Flag for Canada Weather past 2 weeks in Greater Sudbury, Ontario, Canada

Now
1 °F

Scattered clouds.


Feels Like: -8 °F
Forecast: -2 / 10 °F
Wind: 5 mph from North

Location: Sudbury

Current Time: Dec 29, 2014 at 10:21:16 AM

Latest Report: Dec 29, 2014 at 9:00 AM


Visibility: 20 mi

Pressure: 30.29 "Hg

Humidity: 71%

Dew point: -6 °F

Location of Greater SudburyLocation

Historic Weather in Greater Sudbury — Graph

°F

Greater Sudbury temperature yesterday

Maximum temperature yesterday: 30 °F (at 12:00 AM)
Minimum temperature yesterday: 10 °F (at 11:00 PM)
Average temperature yesterday: 22 °F

Past Weeks' High & Low Weather Summary

 TemperatureHumidityPressure
High39 °F (Dec 27, 7:00 PM)100% (Dec 14, 9:00 AM)30.38 "Hg (Dec 14, 9:00 AM)
Low0 °F (Dec 19, 6:00 AM)59% (Dec 28, 2:00 PM)28.97 "Hg (Dec 25, 2:00 AM)
Average24 °F91%30.00 "Hg
* Reported Dec 14 9:00 AM — Dec 29 9:00 AM, Greater Sudbury, Weather by CustomWeather, © 2014

Note: Actual official high and low records may vary slightly from our data, if they occured in-between our weather recording intervals... More about our weather records

Advertising

Greater Sudbury weather history for previous 24 hours

 ConditionsComfort  
Time TempWeatherWind HumidityBarometerVisibility
9:00 AM
Dec 29
1 °FScattered clouds.5 mph71%30.29 "Hg20 mi
8:00 AM1 °FPassing clouds.7 mph71%30.27 "Hg20 mi
7:00 AM1 °FPassing clouds.5 mph71%30.27 "Hg15 mi
6:00 AM1 °FPassing clouds.5 mph71%30.24 "Hg15 mi
5:00 AM1 °FPassing clouds.6 mph78%30.23 "Hg15 mi
4:00 AM3 °FPassing clouds.8 mph78%30.23 "Hg15 mi
3:00 AM5 °FPassing clouds.10 mph72%30.21 "Hg15 mi
2:00 AM7 °FPassing clouds.6 mph72%30.18 "Hg15 mi
1:00 AM9 °FPassing clouds.8 mph72%30.16 "Hg15 mi
12:00 AM10 °FPassing clouds.10 mph72%30.15 "Hg15 mi
11:00 PM
Dec 28
10 °FPassing clouds.10 mph72%30.13 "Hg15 mi
10:00 PM12 °FPassing clouds.16 mph67%30.11 "Hg15 mi
9:00 PM14 °FLow level haze.13 mph67%30.09 "Hg15 mi
8:00 PM16 °FPassing clouds.10 mph79%30.08 "Hg15 mi
7:00 PM16 °FPassing clouds.10 mph79%30.05 "Hg15 mi
6:00 PM19 °FPassing clouds.17 mph73%30.01 "Hg15 mi
5:00 PM23 °FMostly cloudy.16 mph80%29.96 "Hg10 mi
4:00 PM27 °FPartly sunny.15 mph64%29.92 "Hg20 mi
3:00 PM28 °FPartly sunny.18 mph59%29.91 "Hg20 mi
2:00 PM28 °FBroken clouds.16 mph59%29.90 "Hg20 mi
1:00 PM28 °FPartly sunny.9 mph64%29.91 "Hg20 mi
12:00 PM27 °FSnow flurries. Partly sunny.12 mph69%29.93 "Hg20 mi
11:00 AM27 °FPartly sunny.12 mph64%29.94 "Hg20 mi
10:00 AM25 °FPartly sunny.8 mph69%29.94 "Hg20 mi
Weather by CustomWeather, © 2014

See weather overviewHow to use our weather pages